Regional Weather Roundup
Issued by NWS

Home | Current Version | Previous Version | Graphics & Text | Print | Product List | Glossary On
Versions: 1 2 3 4 5 6 7 8 9 10 11 12 13 14 15 16 17 18 19 20 21 22 23 24 25 26 27 28 29 30 31 32 33 34 35 36 37 38 39 40 41 42 43 44 45 46 47 48 49 50
000
ASUS45 KTFX 181910
RWRMT
MONTANA REGIONAL WEATHER ROUNDUP
NATIONAL WEATHER SERVICE GREAT FALLS MT
100 PM MDT WED OCT 18 2017

NOTE: "FAIR" INDICATES FEW OR NO CLOUDS BELOW 12000 FEET WITH NO
SIGNIFICANT WEATHER AND/OR OBSTRUCTIONS TO VISIBILITY.

MTZ001>007-043-182000-
WEST OF THE DIVIDE

CITY           SKY/WX    TMP DP  RH WIND       PRES   REMARKS
KALISPELL      CLOUDY    53  32  44 S8        29.96F
MISSOULA       CLOUDY    56  41  57 N6        30.02F
BUTTE          SUNNY     60  14  16 SW13G20   30.05F
MULLAN PASS    LGT RAIN  37  35  92 VRB6      29.99F FOG
$$

MTZ008-052>055-182000-
SOUTHWEST MONTANA

CITY           SKY/WX    TMP DP  RH WIND       PRES   REMARKS
BOZEMAN        SUNNY     67   9  10 SW18G28   30.00F
DILLON         CLOUDY    63  19  18 SW16      30.06F
W YELLOWSTONE  CLOUDY    52  21  30 SW17G26   30.20S
ENNIS          CLOUDY    63  12  14 S21G28    30.11S
$$

MTZ009-010-012-014-046-048-049-054-182000-
EAST SLOPES AND CENTRAL MONTANA

CITY           SKY/WX    TMP DP  RH WIND       PRES   REMARKS
CUT BANK       PTSUNNY   53  14  21 SW15G24   29.88F
GREAT FALLS    PTSUNNY   60  30  32 SW24G36   29.93F
MALMSTROM AFB  CLOUDY    59  30  33 SW29G43   29.93F
HELENA         CLOUDY    58  32  37 E6        29.97F
$$

MTZ011-013-016-021-045-047-050-051-182000-
NORTH CENTRAL MONTANA

CITY           SKY/WX    TMP DP  RH WIND       PRES   REMARKS
HAVRE          PTSUNNY   56  18  22 SW10      29.91F
LEWISTOWN      SUNNY     61  23  23 W14       29.94F
N BAR RANCH      N/A     54  27  35 S20       29.98F
$$

MTZ017>020-022>027-061-062-182000-
NORTHEAST MONTANA

CITY           SKY/WX    TMP DP  RH WIND       PRES   REMARKS
GLASGOW        SUNNY     56  21  25 W15       29.95F
JORDAN           N/A     57  22  25 SW14      29.98F
SIDNEY         SUNNY     56  24  29 W15G23    29.98F
WOLF POINT     MOSUNNY   56  24  29 W9        29.97F
MALTA          SUNNY     57  19  23 W8        29.94F
$$

MTZ028>42-056>058-182000-
SOUTHCENTRAL AND SOUTHEAST MONTANA

CITY           SKY/WX    TMP DP  RH WIND       PRES   REMARKS
BAKER          SUNNY     56  25  30 W17       30.04F
BILLINGS       MOSUNNY   58  29  33 VRB6      29.98F
LIVINGSTON     CLOUDY    71  12  10 SW25G39   29.96F
MILES CITY     SUNNY     57  22  25 S9        30.01F
$$

REGIONAL REPORTS...DAKOTAS

CITY           SKY/WX    TMP DP  RH WIND       PRES   REMARKS
WILLISTON      SUNNY     54  23  30 W18G29    29.96F
MINOT          SUNNY     57  19  22 W28G40    29.88S
DICKINSON      SUNNY     55  22  27 W15G23    29.99F
BEACH            N/A     54  19  26 W15G21    30.04F
CROSBY           N/A     54  14  20 W29G38    29.89F
TIOGA            N/A     52  18  25 W28G38    29.92F
WATFORD CITY     N/A     54  23  30 W21       29.96F
BISMARCK       SUNNY     58  21  24 W20G28    29.97F
GRAND FORKS    MOSUNNY   62  15  16 W28G44    29.78F
FARGO          CLOUDY    63  13  14 W28G36    29.85F
BUFFALO SD       N/A     58  20  22 W7        30.00F
RAPID CITY     SUNNY     61  23  23 W7        30.08F
$$

REGIONAL REPORTS...WYOMING/IDAHO/WASHINGTON

CITY           SKY/WX    TMP DP  RH WIND       PRES   REMARKS
GILLETTE       SUNNY     62  28  27 S15       30.06F
SHERIDAN       SUNNY     63  29  27 SE14G20   30.02F
BUFFALO WY     SUNNY     63  21  20 S21       30.06F
CODY           SUNNY     68  10  10 W9        30.06F
YELLOWSTONE LA   N/A     49  18  29 SW8       30.24F
IDAHO FALLS    SUNNY     62  27  26 S20       30.19F
SALMON         CLOUDY    54  27  35 CALM      30.09F
BOISE          MOSUNNY   68  31  25 SE8       30.10F
SPOKANE        LGT RAIN  53  42  66 S13       29.95F
$$

REGIONAL REPORTS...ALBERTA

CITY           SKY/WX    TMP DP  RH WIND       PRES   REMARKS
EDMONTON       SUNNY     45  25  45 S6        29.72F
CALGARY        PTSUNNY   45  16  31 S10       29.73F
LETHBRIDGE     PTSUNNY   54  18  24 SW12G22   29.82F
MEDICINE HAT   PTSUNNY   52  23  32 SE3       29.85F
$$

REGIONAL REPORTS...SASKATCHEWAN

CITY           SKY/WX    TMP DP  RH WIND       PRES   REMARKS
SWIFT CURRENT  SUNNY     46  21  36 W14G23    29.86F
REGINA         MOSUNNY   50  16  25 W31G41    29.80R
$$



USA.gov is the U.S. government's official web portal to all federal, state and local government web resources and services.